Weather History for KHMN - November, 2012

Change the Weather History Date:

Monday, November 12, 2012

  Actual Average Record
Temperature  
Mean Temperature 37 °F -  
Max Temperature 55 °F 62 °F 75 °F (2001)
Min Temperature 19 °F 34 °F 19 °F (2012)
Degree Days  
Heating Degree Days 28    
Moisture  
Dew Point -1 °F    
Average Humidity 23    
Maximum Humidity 52    
Minimum Humidity 8    
Precipitation  
Precipitation 0.00 in - - ()
Sea Level Pressure  
Sea Level Pressure 30.35 in    
Wind  
Wind Speed 8 mph (North)    
Max Wind Speed 16 mph    
Max Gust Speed -    
Visibility 10 miles    
Events      
Averages and records for this station are not official NWS values.
T = Trace of Precipitation, MM = Missing Value Source: NWS Daily Summary

Daily Weather History Graph

Daily Weather History Graph

Search for Another Location

Airport or City:

Trip Planner

Search our weather history database for the weather conditions in past years. The results will help you decide how hot, cold, wet, or windy it might be!

Date:

Astronomy

Nov. 12, 2012 Rise Set
Actual Time 6:32 AM MST 5:04 PM MST
Civil Twilight 6:06 AM MST 5:30 PM MST
Nautical Twilight 5:36 AM MST 6:00 PM MST
Astronomical Twilight 5:07 AM MST 6:29 PM MST
Moon 5:03 AM MST (11/12) 4:10 PM MST (11/12)
Length of Visible Light 11h 24m
Length of Day
10h 31m
Waning Crescent, 2% of the Moon is Illuminated
Nov 12
Waning Crescent
Nov 13
New
Nov 20
First Quarter
Nov 28
Full
Dec 6
Last Quarter

Hourly Weather History & Observations

Time (MST) Temp. Windchill Dew Point Humidity Pressure Visibility Wind Dir Wind Speed Gust Speed Precip Events Conditions
12:58 AM 30.9 °F 22.2 °F 4.8 °F 33% 30.33 in 10.0 mi NNE 10.4 mph - N/A   Clear
1:58 AM 31.8 °F 24.6 °F 4.8 °F 32% 30.34 in 10.0 mi NNE 8.1 mph - N/A   Clear
2:58 AM 28.4 °F 19.7 °F 3.6 °F 35% 30.36 in 10.0 mi NNE 9.2 mph - N/A   Clear
3:58 AM 26.8 °F 20.2 °F 3.6 °F 37% 30.37 in 10.0 mi North 5.8 mph - N/A   Clear
4:58 AM 21.9 °F 11.7 °F 1.8 °F 42% 30.38 in 10.0 mi NNW 9.2 mph - N/A   Clear
5:58 AM 19.9 °F 8.6 °F 1.2 °F 44% 30.43 in 10.0 mi NW 10.4 mph - N/A   Clear
6:58 AM 19.6 °F 9.7 °F 4.6 °F 52% 30.46 in 10.0 mi North 8.1 mph - N/A   Clear
7:58 AM 31.1 °F 22.4 °F 2.8 °F 30% 30.43 in 10.0 mi NNW 10.4 mph - N/A   Clear
8:58 AM 40.5 °F 32.1 °F 3.6 °F 22% 30.43 in 10.0 mi North 16.1 mph - N/A   Clear
9:58 AM 45.0 °F 38.5 °F 1.6 °F 17% 30.44 in 10.0 mi North 13.8 mph - N/A   Clear
10:58 AM 48.0 °F - -0.6 °F 13% 30.40 in 10.0 mi NNE 9.2 mph - N/A   Clear
11:58 AM 50.4 °F - -4.4 °F 10% 30.37 in 10.0 mi NNE 6.9 mph - N/A   Clear
12:58 PM 53.1 °F - -4.4 °F 9% 30.31 in 10.0 mi North 9.2 mph - N/A   Clear
1:58 PM 53.4 °F - -4.0 °F 9% 30.27 in 10.0 mi North 4.6 mph - N/A   Clear
2:58 PM 54.7 °F - -5.6 °F 8% 30.26 in 10.0 mi Variable 4.6 mph - N/A   Clear
3:58 PM 55.4 °F - -6.2 °F 8% 30.27 in 10.0 mi WSW 8.1 mph - N/A   Clear
4:58 PM 50.0 °F - -2.2 °F 12% 30.30 in 10.0 mi WSW 5.8 mph - N/A   Clear
5:58 PM 44.1 °F 42.5 °F -2.2 °F 14% 30.32 in 10.0 mi West 3.5 mph - N/A   Clear
6:59 PM 38.1 °F 34.6 °F -4.2 °F 17% 30.36 in 10.0 mi NE 4.6 mph - N/A   Clear
7:58 PM 34.5 °F 29.4 °F -6.0 °F 18% 30.35 in 10.0 mi NE 5.8 mph - N/A   Clear
8:58 PM 32.0 °F 28.7 °F -5.8 °F 20% 30.33 in 10.0 mi North 3.5 mph - N/A   Clear
9:58 PM 30.7 °F 24.9 °F -5.6 °F 21% 30.31 in 10.0 mi ENE 5.8 mph - N/A   Clear
10:58 PM 30.2 °F 24.3 °F -3.3 °F 24% 30.30 in 10.0 mi East 5.8 mph - N/A   Clear
11:59 PM 30.4 °F 25.6 °F -2.4 °F 24% 30.29 in 10.0 mi East 4.6 mph - N/A   Clear